User: anonymous   Login
Location: Columbia
(38.9520°N, 92.3340°W)
Time: 20:28:02
(UTC-06:00)
Language:

Meteor 1-4 Rocket - Orbit

View from above orbital plane
View from above orbital plane
View from above satellite
View from above satellite

Ground track
Ground track

The orbit data is extracted from the following two-line orbital elements,

1  4394U 70037B   16336.88715307 +.00001293 +00000-0 +45620-4 0  9991
2  4394 081.2441 246.3830 0042742 077.6357 282.9657 15.27549736535115
Epoch (UTC): 01 December 2016 21:17:30
Eccentricity: 0.0042742
inclination: 81.2441°
perigee height: 454 km
apogee height: 512 km
right ascension of ascending node: 246.3830°
argument of perigee: 77.6357°
revolutions per day: 15.27549736
mean anomaly at epoch: 282.9657°
orbit number at epoch: 53511

The dashed part of the orbit path shows where the satellite is in the earth's shadow,  

DLR